This demonstration page uses our WeatherBlox Daily Observations layout. Learn more.

Left ArrowRight Arrow

Hourly Observations for March 18, 2018

Temp ( °F °C ) Dew Point ( °F °C ) Humidity (%) Winds ( mph kmh ) Pressure ( in mb ) Visibility ( mi km ) Precip ( " mm )
12:12 am 00:12 Cloudy 38 3.3 33 0.6 83 83 Calm 30.12 1020 7 11 0.00 0.00
12:54 am 00:54 Cloudy 38 3.3 34 1.1 86 86 Calm 30.09 1019 7 11 0.00 0.00
1:05 am 01:05 Cloudy 38 3.3 34 1.1 86 86 Calm 30.12 1020 7 11 0.00 0.00
1:54 am 01:54 Cloudy with Mist and Fog 37 2.8 34 1.1 89 89 Calm 30.08 1019 6 10 0.00 0.00
2:44 am 02:44 Cloudy 38 3.3 34 1.1 86 86 Calm 30.12 1020 7 11 0.00 0.00
2:54 am 02:54 Cloudy 37 2.8 34 1.1 89 89 Calm 30.09 1019 7 11 0.00 0.00
3:54 am 03:54 Cloudy with Mist and Fog 37 2.8 34 1.1 89 89 S 3 6 30.06 1018 6 10 0.00 0.00
4:54 am 04:54 Cloudy with Mist and Fog 38 3.3 34 1.1 86 86 SSE 3 6 30.06 1018 6 10 0.00 0.00
5:54 am 05:54 Cloudy with Haze 38 3.3 33 0.6 83 83 Calm 30.04 1017 6 10 0.00 0.00
6:54 am 06:54 Cloudy with Mist and Fog 38 3.3 34 1.1 86 86 Calm 30.05 1018 5 8 0.00 0.00
7:44 am 07:44 Cloudy with Mist and Fog 38 3.3 34 1.1 86 86 Calm 30.09 1019 5 8 0.00 0.00
7:54 am 07:54 Cloudy with Mist and Fog 38 3.3 34 1.1 86 86 Calm 30.05 1018 5 8 0.00 0.00
8:54 am 08:54 Cloudy with Haze 39 3.9 34 1.1 82 82 E 6 9 30.04 1017 4 6 0.00 0.00
9:54 am 09:54 Cloudy with Haze 39 3.9 33 0.6 79 79 E 8 13 30.02 1017 5 8 0.00 0.00
10:54 am 10:54 Cloudy with Haze 39 3.9 34 1.1 82 82 SE 7 11 30.02 1017 5 8 0.00 0.00
11:54 am 11:54 Cloudy with Haze 40 4.4 34 1.1 79 79 undefined N/A 30.02 1017 6 10 0.00 0.00
12:54 pm 12:54 Cloudy with Haze 41 5 34 1.1 76 76 E 9 15 30.00 1016 6 10 0.00 0.00
1:54 pm 13:54 Cloudy 42 5.6 34 1.1 73 73 SE 10 17 29.99 1016 7 11 0.00 0.00
2:54 pm 14:54 Cloudy 42 5.6 35 1.7 76 76 ESE 7 11 29.95 1014 7 11 0.00 0.00
3:19 pm 15:19 Cloudy 42 5.6 35 1.7 76 76 E 8 13 29.94 1014 7 11 0.00 0.00
3:54 pm 15:54 Cloudy 42 5.6 35 1.7 76 76 SE 9 15 29.93 1013 9 14 0.00 0.00
4:54 pm 16:54 Cloudy with Haze 41 5 35 1.7 79 79 ESE 8 13 29.90 1013 6 10 0.00 0.00
5:54 pm 17:54 Cloudy with Haze 41 5 35 1.7 79 79 E 9 15 29.89 1012 5 8 0.00 0.00
6:54 pm 18:54 Cloudy with Light Rain 40 4.4 36 2.2 86 86 E 6 9 29.88 1012 4 6 0.01 0.25
7:54 pm 19:54 Cloudy with Light Rain 39 3.9 36 2.2 89 89 VRB 5 7 29.88 1012 5 8 0.05 1.27
8:15 pm 20:15 Cloudy with Rain 39 3.9 37 2.8 93 93 ENE 9 15 29.85 1011 3 5 0.02 0.51
8:42 pm 20:42 Cloudy with Light Rain 38 3.3 36 2.2 93 93 NE 12 19 29.85 1011 5 8 0.05 1.27
8:49 pm 20:49 Cloudy with Light Rain 37 3 36 2 93 93 ENE 14 22 29.85 1011 5 8 0.05 1.27
8:54 pm 20:54 Cloudy with Mist and Fog 38 3.3 36 2.2 93 93 ENE 10 17 29.84 1011 5 8 0.05 1.27
9:19 pm 21:19 Cloudy with Light Rain 38 3.3 36 2.2 93 93 ENE 8 13 29.85 1011 6 10 0.00 0.03
9:54 pm 21:54 Cloudy with Mist and Fog 39 3.9 37 2.8 93 93 Calm 29.89 1012 6 10 0.00 0.03
10:14 pm 22:14 Cloudy with Rain 38 3.3 36 2.2 93 93 Calm 29.91 1013 3 5 0.04 1.02
10:47 pm 22:47 Cloudy with Heavy Rain 37 2.8 36 2.2 96 96 ENE 9 15 29.91 1013 3 4 0.10 2.54
10:54 pm 22:54 Cloudy with Rain 38 3.3 36 2.2 93 93 E 8 13 29.90 1012 3 4 0.14 3.56
11:09 pm 23:09 Cloudy with Heavy Rain 38 3.3 37 2.8 97 97 E 6 9 29.91 1013 3 4 0.07 1.78
11:26 pm 23:26 Cloudy with Rain 38 3.3 36 2.2 93 93 E 9 15 29.91 1013 4 6 0.13 3.30
11:54 pm 23:54 Cloudy with Light Rain 37 2.8 35 1.7 93 93 ENE 8 13 29.89 1012 5 8 0.17 4.32

Powered by AerisWeather